Regional Weather Roundup
Issued by NWS Albany, NY

Home | Current Version | Previous Version | Text Only | Print | Product List | Glossary On
Versions: 1 2 3 4 5 6 7 8 9 10 11 12 13 14 15 16 17 18 19 20 21 22 23 24 25 26 27
000
ASUS41 KALY 152310
RWRALY

NEW YORK STATE HOURLY WEATHER ROUNDUP
NATIONAL WEATHER SERVICE ALBANY NY
600 PM EST FRI DEC 15 2017

NOTE: "FAIR" INDICATES FEW OR NO CLOUDS BELOW 12,000 FEET WITH NO
SIGNIFICANT WEATHER AND/OR NO OBSTRUCTIONS TO VISIBILITY.

NYZ032-033-038>043-046>054-057>066-NYZ062>081-082-084-160000-
EAST


CITY           SKY/WX    TMP DP  RH WIND       PRES   REMARKS
ALBANY         CLOUDY    21  10  62 S5        29.87F WCI  15
GLENS FALLS    MOCLDY    14  10  84 CALM      29.87F
POUGHKEEPSIE   LGT SNOW  22  17  81 CALM      29.90S
NEWBURGH       LGT SNOW  19  19 100 CALM      29.89S
MONTGOMERY     LGT SNOW  21  18  88 S3        29.88F FOG
WHITE PLAINS   LGT SNOW  22  20  92 W5        29.88F VSB 1   WCI  16
ISLIP          LGT SNOW  27  25  92 W5        29.91R VSB 3/4 WCI  22
NEW YORK CITY  LGT SNOW  25  22  88 VRB5      29.92F VSB 3/4 WCI  19
CENTRAL PARK   LGT SNOW  24  20  84 NW5       29.93F VSB 1   WCI  18
$$

NYZ005>009-017-018-044>046-055-056-160000-
CENTRAL


CITY           SKY/WX    TMP DP  RH WIND       PRES   REMARKS
FULTON         MOCLDY    20  13  74 CALM      29.80F
SYRACUSE       CLOUDY    22  13  68 S6        29.81F WCI  14
ROME           CLOUDY    19  12  74 E5        29.84S WCI  12
ELMIRA         CLOUDY    25  16  68 SW7       29.80R WCI  17
BINGHAMTON     CLOUDY    18  10  71 S5        29.75S WCI  11
MONTICELLO     LGT SNOW  18  14  86 S3        29.81S FOG
$$

NYZ026>034-041>043-087-160000-
NORTH


CITY           SKY/WX    TMP DP  RH WIND       PRES   REMARKS
WATERTOWN      CLOUDY    22  14  71 S8        29.79F WCI  12
FORT DRUM      NOT AVBL
OGDENSBURG     LGT SNOW  23  20  91 S3        29.80S
MASSENA        FLURRIES  18  15  88 E3        29.83F
SARANAC LAKE   CLOUDY    16  10  77 S7        29.70F WCI   6
PLATTSBURGH    CLOUDY    20  11  68 S6        29.83F WCI  12
$$

NYZ001>004-010>016-019>021-085-160000-
WEST


CITY           SKY/WX    TMP DP  RH WIND       PRES   REMARKS
NIAGARA FALLS  LGT SNOW  27  22  81 W17G24    29.74R VSB 1   WCI  14
BUFFALO        SNOW      23  19  85 S17       29.73F VSB 1/2 WCI   9
DUNKIRK        LGT SNOW  24  18  77 SW17G28   29.77S WCI  11
JAMESTOWN      LGT SNOW  19  16  88 SW14G22   29.73F FOG     WCI   6
WELLSVILLE     LGT SNOW  21  12  68 VRB6      29.73S WCI  13
ROCHESTER      CLOUDY    26  14  60 SW13      29.77F WCI  15
PENN YAN       CLOUDY    25  11  55 SW8       29.77F WCI  16
$$

             KEY
       WCI = WIND CHILL INDEX
       VSB = VISIBILITY
       HX  = HEAT INDEX
$$




USA.gov is the U.S. government's official web portal to all federal, state and local government web resources and services.